Weather History for Jackson, TN

Change the Weather History Date:

Wednesday, May 13, 2009

  Actual Average Record
Temperature  
Mean Temperature 73 °F 68 °F  
Max Temperature 81 °F 79 °F 93 °F (1962)
Min Temperature 65 °F 56 °F 38 °F (2013)
Degree Days  
Heating Degree Days 0 2  
Month to date heating degree days 12 30  
Since 1 July heating degree days 3502 3556  
Cooling Degree Days 8 4  
Month to date cooling degree days 44 45  
Year to date cooling degree days 121 104  
Growing Degree Days 23 (Base 50)    
Moisture  
Dew Point 66 °F    
Average Humidity 78    
Maximum Humidity 87    
Minimum Humidity 69    
Precipitation  
Precipitation 0.00 in 0.19 in 2.23 in (1967)
Month to date precipitation 5.36 2.46  
Year to date precipitation 19.30 20.31  
Snow  
Snow 0.00 in 0.00 in - ()
Month to date snowfall 0.0  
Since 1 July snowfall 4.6  
Snow Depth -    
Sea Level Pressure  
Sea Level Pressure 29.97 in    
Wind  
Wind Speed 11 mph (South)    
Max Wind Speed 20 mph    
Max Gust Speed 30 mph    
Visibility 10 miles    
Events      
T = Trace of Precipitation, MM = Missing Value Source: NWS Daily Summary

Daily Weather History Graph

Daily Weather History Graph

Search for Another Location

Airport:

Trip Planner

Search our weather history database for the weather conditions in past years. The results will help you decide how hot, cold, wet, or windy it might be!

Date:

Astronomy

May. 13, 2009 Rise Set
Actual Time 5:52 AM CDT 7:52 PM CDT
Civil Twilight 5:24 AM CDT 8:20 PM CDT
Nautical Twilight 4:49 AM CDT 8:54 PM CDT
Astronomical Twilight 4:12 AM CDT 9:31 PM CDT
Moon No Moon Rise 9:07 AM CDT (5/13)
Length of Visible Light 14h 56m
Length of Day
14h 00m
Waning Gibbous, 82% of the Moon is Illuminated
May 13
Waning Gibbous
May 17
Last Quarter
May 24
New
May 30
First Quarter
Jun 7
Full

Hourly Weather History & Observations

Time (CDT) Temp. Heat Index Dew Point Humidity Pressure Visibility Wind Dir Wind Speed Gust Speed Precip Events Conditions
12:53 AM 68.0 °F - 61.0 °F 78% 29.94 in 10.0 mi South 8.1 mph 17.3 mph N/A   Partly Cloudy
1:53 AM 68.0 °F - 61.0 °F 78% 29.91 in 10.0 mi South 10.4 mph 18.4 mph N/A   Clear
2:53 AM 66.9 °F - 62.1 °F 84% 29.94 in 10.0 mi South 10.4 mph - N/A   Clear
3:53 AM 66.0 °F - 63.0 °F 90% 29.97 in 10.0 mi South 8.1 mph - N/A   Mostly Cloudy
4:53 AM 66.0 °F - 63.0 °F 90% 29.99 in 10.0 mi SSE 3.5 mph - N/A   Overcast
5:35 AM 66.2 °F - 62.6 °F 88% 30.01 in 10.0 mi South 8.1 mph - N/A   Mostly Cloudy
5:53 AM 66.0 °F - 62.1 °F 87% 30.00 in 10.0 mi South 8.1 mph 16.1 mph N/A   Overcast
6:00 AM 66.2 °F - 62.6 °F 88% 30.01 in 10.0 mi South 8.1 mph - N/A   Mostly Cloudy
6:53 AM 66.9 °F - 62.1 °F 84% 30.02 in 10.0 mi South 11.5 mph - N/A   Overcast
7:49 AM 69.8 °F - 62.6 °F 78% 30.02 in 10.0 mi South 12.7 mph 19.6 mph N/A   Mostly Cloudy
7:53 AM 69.1 °F - 62.1 °F 78% 30.01 in 10.0 mi South 11.5 mph 19.6 mph N/A   Overcast
8:04 AM 69.8 °F - 62.6 °F 78% 30.02 in 10.0 mi South 11.5 mph 18.4 mph N/A   Mostly Cloudy
8:48 AM 69.8 °F - 64.4 °F 83% 30.01 in 10.0 mi SSE 9.2 mph 20.7 mph N/A   Overcast
8:53 AM 70.0 °F - 64.0 °F 81% 30.00 in 10.0 mi South 11.5 mph 19.6 mph N/A   Overcast
9:53 AM 71.1 °F - 66.0 °F 84% 30.00 in 10.0 mi South 10.4 mph 21.9 mph N/A   Overcast
10:53 AM 73.0 °F - 66.9 °F 81% 29.99 in 10.0 mi South 12.7 mph 19.6 mph N/A   Overcast
11:24 AM 73.4 °F - 66.2 °F 78% 30.00 in 10.0 mi South 11.5 mph 25.3 mph N/A   Overcast
11:53 AM 73.0 °F - 66.9 °F 81% 29.99 in 10.0 mi South 11.5 mph 21.9 mph N/A   Overcast
12:53 PM 77.0 °F - 68.0 °F 74% 29.98 in 10.0 mi South 10.4 mph 23.0 mph N/A   Mostly Cloudy
1:39 PM 78.8 °F - 69.8 °F 74% 29.98 in 10.0 mi South 12.7 mph 29.9 mph N/A   Scattered Clouds
1:53 PM 78.1 °F - 68.0 °F 71% 29.97 in 10.0 mi South 18.4 mph 26.5 mph N/A   Mostly Cloudy
2:32 PM 80.6 °F 83.9 °F 69.8 °F 70% 29.98 in 10.0 mi South 13.8 mph 26.5 mph N/A   Mostly Cloudy
2:53 PM 75.9 °F - 69.1 °F 79% 29.96 in 10.0 mi SSE 9.2 mph 20.7 mph N/A   Mostly Cloudy
3:31 PM 78.8 °F - 69.8 °F 74% 29.96 in 10.0 mi South 9.2 mph 18.4 mph N/A   Mostly Cloudy
3:40 PM 78.8 °F - 69.8 °F 74% 29.95 in 10.0 mi South 12.7 mph 20.7 mph N/A   Mostly Cloudy
3:49 PM 78.8 °F - 69.8 °F 74% 29.95 in 10.0 mi South 13.8 mph 23.0 mph N/A   Scattered Clouds
3:53 PM 79.0 °F - 69.1 °F 72% 29.94 in 10.0 mi South 13.8 mph 23.0 mph N/A   Partly Cloudy
4:53 PM 80.1 °F 83.2 °F 70.0 °F 71% 29.93 in 10.0 mi SSE 12.7 mph 21.9 mph N/A   Scattered Clouds
5:53 PM 78.1 °F - 69.1 °F 74% 29.93 in 10.0 mi South 12.7 mph 20.7 mph N/A   Partly Cloudy
6:53 PM 77.0 °F - 69.1 °F 76% 29.94 in 10.0 mi South 9.2 mph 16.1 mph N/A   Partly Cloudy
7:53 PM 75.9 °F - 69.1 °F 79% 29.94 in 10.0 mi South 6.9 mph 17.3 mph N/A   Clear
8:53 PM 73.9 °F - 68.0 °F 82% 29.94 in 10.0 mi SSE 10.4 mph 19.6 mph N/A   Clear
9:53 PM 73.0 °F - 68.0 °F 84% 29.94 in 10.0 mi South 11.5 mph 23.0 mph N/A   Scattered Clouds
10:04 PM 73.4 °F - 68.0 °F 83% 29.96 in 10.0 mi SSE 11.5 mph 21.9 mph N/A   Mostly Cloudy
10:53 PM 73.9 °F - 68.0 °F 82% 29.94 in 10.0 mi SSE 12.7 mph 21.9 mph N/A   Overcast
11:53 PM 73.0 °F - 66.9 °F 81% 29.97 in 10.0 mi South 11.5 mph 24.2 mph N/A   Overcast